Find Starlink 34716

NORAD ID: 65352 Int'l Des: 2025-190 Owner: SPXS Country: US Constellation: starlink operational
LEOCIRCULAR

現在のビュー

3D地球を読み込み中...

Starlink 34716について

説明を読み込み中...

次回通過

Passes for default location (London). Set your location on the main map for personalized predictions.

高度履歴

Loading altitude history...

軌道要素

1 65352U 25190B 26150.00002315 .00038948 00000-0 13212-2 0 9996
2 65352 53.1587 150.5125 0001395 94.0794 280.4293 15.30175814 5730
Epoch: May 30, 2026 • Age: 11 hours

現在のステータス

高度 479.5 km
速度 7.63 km/s
衛星直下点 -14.64°S, 86.76°E
打ち上げ日 Aug 28, 2025
運用期間 0.7 years
タイプ internet

技術仕様

分類 Payload
質量 575.00 kg
乾燥質量 530.00 kg
総質量 575.00 kg
長さ 0.30 m
直径 4.10 m
スパン 29.00 m
形状 Box + pan
製造者 SPXS
バスタイプ Starlink V2MO
フェーズステータス In Orbit
所有者/国 SPXS/US

Most Searched